La Motte, IA

10:45 AM CDT on August 30, 2016 (GMT -0500)
Dubuque Regional

Weather History for KDBQ - March, 2013

Change the Weather History Date:

Saturday, March 9, 2013

  Actual Average Record
Temperature  
Mean Temperature 35 °F 32 °F  
Max Temperature 39 °F 41 °F 65 °F (1977)
Min Temperature 31 °F 24 °F -4 °F (1975)
Degree Days  
Heating Degree Days 30 33  
Month to date heating degree days 386 310  
Since 1 July heating degree days 5636 5703  
Cooling Degree Days 0 0  
Month to date cooling degree days 0 0  
Year to date cooling degree days 0 0  
Moisture  
Dew Point 34 °F    
Average Humidity 91    
Maximum Humidity 100    
Minimum Humidity 82    
Precipitation  
Precipitation 0.99 in 0.07 in 0.99 in (2013)
Month to date precipitation 1.47 0.60  
Year to date precipitation 4.89 3.21  
Snow  
Snow 0.00 in 0.30 in - ()
Month to date snowfall 6.4 2.2  
Since 1 July snowfall 48.3 35.8  
Snow Depth 7.00 in    
Sea Level Pressure  
Sea Level Pressure 29.91 in    
Wind  
Wind Speed 17 mph (SSE)    
Max Wind Speed 26 mph    
Max Gust Speed 32 mph    
Visibility 4 miles    
Events Rain    
T = Trace of Precipitation, MM = Missing Value Source: NWS Daily Summary

Daily Weather History Graph

Daily Weather History Graph

Search for Another Location

Airport or City:

Trip Planner

Search our weather history database for the weather conditions in past years. The results will help you decide how hot, cold, wet, or windy it might be!

Date:

Astronomy

Mar. 09, 2013 Rise Set
Actual Time 6:24 AM CST 6:02 PM CST
Civil Twilight 5:56 AM CST 6:30 PM CST
Nautical Twilight 5:24 AM CST 7:03 PM CST
Astronomical Twilight 4:51 AM CST 7:36 PM CST
Moon 4:50 AM CST (3/9) 4:03 PM CST (3/9)
Length of Visible Light 12h 34m
Length of Day
11h 38m
Waning Crescent, 5% of the Moon is Illuminated
Mar 9
Waning Crescent
Mar 11
New
Mar 19
First Quarter
Mar 27
Full
Apr 2
Last Quarter

Hourly Weather History & Observations

Time (CST) Temp. Windchill Dew Point Humidity Pressure Visibility Wind Dir Wind Speed Gust Speed Precip Events Conditions
12:53 AM 32.0 °F 21.2 °F 28.0 °F 85% 30.21 in 8.0 mi SE 16.1 mph - N/A   Scattered Clouds
1:53 AM 32.0 °F 20.8 °F 28.0 °F 85% 30.17 in 8.0 mi SE 17.3 mph - N/A   Mostly Cloudy
2:53 AM 33.1 °F 22.2 °F 28.9 °F 85% 30.15 in 8.0 mi SSE 17.3 mph - N/A   Overcast
3:53 AM 34.0 °F 22.1 °F 28.9 °F 82% 30.12 in 8.0 mi SSE 21.9 mph - N/A   Overcast
4:53 AM 34.0 °F 22.7 °F 28.9 °F 82% 30.11 in 8.0 mi SSE 19.6 mph - N/A   Overcast
5:53 AM 34.0 °F 24.2 °F 32.0 °F 92% 30.12 in 5.0 mi South 15.0 mph - 0.02 in   Overcast
6:53 AM 34.0 °F 23.8 °F 32.0 °F 92% 30.12 in 3.0 mi SSE 16.1 mph - 0.03 in Rain Light Rain
7:53 AM 34.0 °F 22.7 °F 32.0 °F 92% 30.08 in 5.0 mi SSE 19.6 mph - 0.03 in   Overcast
8:53 AM 34.0 °F 22.1 °F 32.0 °F 92% 30.04 in 5.0 mi SSE 21.9 mph 28.8 mph N/A   Overcast
9:04 AM 33.8 °F 21.9 °F 32.0 °F 93% 30.00 in 5.0 mi SSE 21.9 mph - N/A   Overcast
9:53 AM 34.0 °F 21.8 °F 32.0 °F 92% 30.01 in 5.0 mi SSE 23.0 mph - N/A   Overcast
10:09 AM 33.8 °F 21.9 °F 33.8 °F 100% 29.96 in 5.0 mi SSE 21.9 mph - N/A   Overcast
10:36 AM 35.6 °F 25.2 °F 33.8 °F 93% 29.96 in 4.0 mi SSE 18.4 mph - N/A   Overcast
10:53 AM 34.0 °F 23.0 °F 33.1 °F 96% 29.99 in 3.0 mi SSE 18.4 mph 28.8 mph N/A   Overcast
11:01 AM 33.8 °F 22.8 °F 33.8 °F 100% 29.95 in 2.5 mi SSE 18.4 mph - N/A   Overcast
11:28 AM 33.8 °F 22.2 °F 33.8 °F 100% 29.94 in 1.5 mi SSE 20.7 mph - N/A   Overcast
11:53 AM 34.0 °F 22.7 °F 34.0 °F 100% 29.96 in 1.5 mi SSE 19.6 mph 24.2 mph N/A   Overcast
12:53 PM 34.0 °F 22.7 °F 34.0 °F 100% 29.92 in 1.8 mi SSE 19.6 mph - N/A   Overcast
1:27 PM 33.8 °F 22.8 °F 33.8 °F 100% 29.87 in 2.0 mi South 18.4 mph - 0.03 in   Overcast
1:46 PM 35.6 °F 25.5 °F 35.6 °F 100% 29.86 in 1.8 mi South 17.3 mph - 0.04 in   Overcast
1:53 PM 35.1 °F 25.2 °F 35.1 °F 100% 29.89 in 1.5 mi South 16.1 mph - 0.05 in Rain Rain
2:27 PM 35.6 °F 26.2 °F 35.6 °F 100% 29.84 in 2.0 mi SSE 15.0 mph - 0.04 in   Overcast
2:53 PM 35.1 °F 25.5 °F 35.1 °F 100% 29.86 in 1.8 mi SSE 15.0 mph - 0.06 in Rain Light Rain
3:15 PM 35.6 °F 26.2 °F 35.6 °F 100% 29.82 in 2.5 mi SSE 15.0 mph - 0.04 in Rain Rain
3:53 PM 35.1 °F 25.2 °F 35.1 °F 100% 29.83 in 2.5 mi SSE 16.1 mph - 0.08 in Rain Rain
4:23 PM 35.6 °F 25.9 °F 35.6 °F 100% 29.79 in 1.5 mi SSE 16.1 mph - 0.03 in Rain Light Rain
4:53 PM 35.1 °F 24.1 °F 35.1 °F 100% 29.82 in 1.2 mi SSE 19.6 mph - 0.09 in Rain Rain
5:50 PM 35.6 °F 25.2 °F 35.6 °F 100% 29.80 in 1.8 mi SSE 18.4 mph - 0.16 in Rain Light Rain
5:53 PM 35.1 °F 24.5 °F 35.1 °F 100% 29.83 in 2.0 mi SSE 18.4 mph - 0.16 in Rain Light Rain
6:12 PM 35.6 °F 24.8 °F 35.6 °F 100% 29.79 in 3.0 mi SSE 19.6 mph - 0.04 in Rain Light Rain
6:53 PM 36.0 °F 26.3 °F 36.0 °F 100% 29.82 in 3.0 mi SSE 16.1 mph - 0.18 in Rain Rain
7:53 PM 35.1 °F 25.5 °F 35.1 °F 100% 29.81 in 3.0 mi SSE 15.0 mph - 0.11 in   Overcast
8:06 PM 35.6 °F 25.9 °F 35.6 °F 100% 29.78 in 2.5 mi SSE 16.1 mph - 0.01 in Rain Light Rain
8:28 PM 35.6 °F 26.6 °F 35.6 °F 100% 29.79 in 2.5 mi SSE 13.8 mph - 0.01 in   Overcast
8:53 PM 36.0 °F 28.0 °F 36.0 °F 100% 29.82 in 3.0 mi SSE 11.5 mph - 0.02 in   Overcast
9:06 PM 35.6 °F 27.1 °F 35.6 °F 100% 29.79 in 3.0 mi SSE 12.7 mph - 0.01 in   Overcast
9:18 PM 35.6 °F 28.0 °F 35.6 °F 100% 29.80 in 2.5 mi South 10.4 mph - 0.01 in Rain Light Rain
9:30 PM 35.6 °F 28.6 °F 35.6 °F 100% 29.79 in 2.5 mi SSE 9.2 mph - 0.04 in Rain Rain
9:53 PM 36.0 °F 27.1 °F 36.0 °F 100% 29.82 in 2.5 mi SSE 13.8 mph - 0.10 in Rain Rain
10:06 PM 35.6 °F 26.2 °F 35.6 °F 100% 29.77 in 3.0 mi SE 15.0 mph - 0.02 in Rain Light Rain
10:53 PM 37.0 °F 28.9 °F 37.0 °F 100% 29.78 in 3.0 mi SSE 12.7 mph - 0.04 in   Overcast
11:53 PM 39.0 °F 31.4 °F 37.9 °F 96% 29.77 in 5.0 mi SSE 12.7 mph 21.9 mph 0.02 in   Overcast